DATE,TIME,TEMP,AVGSPEED,AVGDIR,GUST,GUSTDIR,HUMIDITY,PRESSURE,RAIN,SOLAR
05/06/24,08:55,65.0,0.0,SE ,0.0,SE ,97.0,30.015,0,0.0
05/06/24,08:56,65.0,0.0,SE ,0.0,SE ,97.0,30.015,0,0.0
05/06/24,08:57,65.0,0.0,SE ,0.0,SE ,97.0,30.015,0,0.0
05/06/24,08:58,65.1,0.0,SE ,0.0,SE ,97.0,30.014,0,0.0
05/06/24,08:59,65.1,0.0,SE ,0.0,SE ,97.0,30.015,0,0.0
05/06/24,09:00,65.1,0.0,SE ,0.0,SE ,97.0,30.014,0,0.0
05/06/24,09:01,65.1,0.0,SE ,0.0,SE ,97.0,30.013,0,0.0
05/06/24,09:02,65.1,0.0,SE ,0.0,SE ,97.0,30.012,0,0.0
05/06/24,09:03,65.1,0.0,SE ,0.0,SE ,97.0,30.012,0,0.0
05/06/24,09:04,65.2,0.0,SE ,0.0,SE ,97.0,30.012,0,0.0
05/06/24,09:05,65.2,0.0,SE ,0.0,SE ,97.0,30.013,0,0.0
05/06/24,09:06,65.2,0.0,SE ,0.0,SE ,97.0,30.013,0,0.0
05/06/24,09:07,65.3,0.0,SE ,0.0,SE ,97.0,30.012,0,0.0
05/06/24,09:08,65.4,0.0,SE ,0.0,SE ,97.0,30.012,0,0.0
05/06/24,09:09,65.4,0.0,SE ,0.0,SE ,97.0,30.014,0,0.0
05/06/24,09:10,65.4,0.0,SE ,0.0,SE ,97.0,30.012,0,0.0
05/06/24,09:11,65.4,0.0,SE ,0.0,SE ,97.0,30.013,0,0.0
05/06/24,09:12,65.5,0.0,SE ,0.0,SE ,97.0,30.012,0,0.0
05/06/24,09:13,65.5,0.0,SE ,0.0,SE ,97.0,30.013,0,0.0
05/06/24,09:14,65.5,0.0,SE ,0.0,SE ,97.0,30.013,0,0.0
05/06/24,09:15,65.6,0.0,SE ,0.0,SE ,97.0,30.012,0,0.0
05/06/24,09:16,65.6,0.0,SE ,0.0,SE ,97.0,30.013,0,0.0
05/06/24,09:17,65.6,0.0,SE ,0.0,SE ,97.0,30.012,0,0.0
05/06/24,09:18,65.7,0.0,SE ,0.0,SE ,97.0,30.012,0,0.0
05/06/24,09:19,65.8,0.0,SE ,0.0,SE ,97.0,30.014,0,0.0
05/06/24,09:20,65.8,0.0,SE ,0.0,SE ,97.0,30.014,0,0.0
05/06/24,09:21,65.8,0.0,SE ,0.0,SE ,97.0,30.013,0,0.0
05/06/24,09:22,65.8,0.0,SE ,0.0,SE ,97.0,30.013,0,0.0
05/06/24,09:23,65.8,0.0,SE ,0.0,SE ,97.0,30.014,0,0.0
05/06/24,09:24,65.8,0.0,SE ,0.0,SE ,97.0,30.013,0,0.0
05/06/24,09:25,65.9,0.0,SE ,0.0,SE ,97.0,30.013,0,0.0
05/06/24,09:26,65.9,0.0,SE ,0.0,SE ,97.0,30.012,0,0.0
05/06/24,09:27,65.9,0.0,SE ,0.0,SE ,97.0,30.013,0,0.0
05/06/24,09:28,65.9,0.0,SE ,0.0,SE ,97.0,30.013,0,0.0
05/06/24,09:29,66.0,0.0,SE ,0.0,SE ,97.0,30.013,0,0.0
05/06/24,09:30,66.0,0.0,SE ,0.0,SE ,97.0,30.012,0,0.0
05/06/24,09:31,66.0,0.028571429,SE ,0.0,SE ,97.0,30.012,0,0.0
05/06/24,09:32,66.1,0.028571429,SE ,0.0,SE ,97.0,30.012,0,0.0
05/06/24,09:33,66.2,0.028571429,SE ,0.0,SE ,97.0,30.012,0,0.0
05/06/24,09:34,66.2,0.2857143,SE ,0.0,SSE,96.0,30.011,0,0.0
05/06/24,09:35,66.2,0.32352942,SE ,0.0,SSE,96.0,30.012,0,0.0
05/06/24,09:36,66.2,0.14705883,SE ,0.0,SSE,96.0,30.011,0,0.0
05/06/24,09:37,66.2,0.14705883,SE ,0.0,SSE,96.0,30.012,0,0.0
05/06/24,09:38,66.3,0.05882353,SE ,0.0,SSE,96.0,30.013,0,0.0
05/06/24,09:39,66.3,0.0,SE ,0.0,SSE,96.0,30.012,0,0.0
05/06/24,09:40,66.4,0.029411765,SSE,0.0,SSE,96.0,30.015,0,0.0
05/06/24,09:41,66.4,0.22857143,SSE,0.0,SSE,96.0,30.014,0,0.0
05/06/24,09:42,66.5,0.2,SSE,0.0,SE ,96.0,30.013,0,0.0
05/06/24,09:43,66.6,0.14705883,SSE,1.0,SW ,96.0,30.014,0,0.0
05/06/24,09:44,66.6,0.1764706,SSE,0.0,SW ,96.0,30.015,0,0.0
05/06/24,09:45,66.6,0.029411765,SSE,0.0,SW ,95.0,30.015,0,0.0
05/06/24,09:46,66.7,0.0,SSE,0.0,SW ,95.0,30.015,0,0.0
05/06/24,09:47,66.7,0.0,SSE,0.0,SW ,95.0,30.015,0,0.0
05/06/24,09:48,66.8,0.0,SSE,0.0,SW ,95.0,30.014,0,0.0
05/06/24,09:49,66.8,0.0,SSE,0.0,SW ,95.0,30.014,0,0.0
05/06/24,09:50,66.9,0.0,SW ,0.0,SW ,95.0,30.014,0,0.0
05/06/24,09:51,67.0,0.0,SW ,0.0,SSW,95.0,30.014,0,0.0
05/06/24,09:52,67.0,0.0,SW ,0.0,SSW,95.0,30.013,0,0.0
05/06/24,09:53,67.1,0.2647059,SW ,0.0, N ,94.0,30.013,0,0.0
05/06/24,09:54,67.1,0.29411766,SW ,0.0, N ,94.0,30.012,0,0.0
05/06/24,09:55,67.2,0.029411765,SSW,0.0,ENE,94.0,30.012,0,0.0
05/06/24,09:56,67.2,0.0,SSW,0.0,SE ,94.0,30.012,0,0.0
05/06/24,09:57,67.3,0.20588236,SSW,2.0,SSE,94.0,30.01,0,0.0
05/06/24,09:58,67.3,0.23529412,SSW,0.0,SE ,94.0,30.011,0,0.0
05/06/24,09:59,67.3,0.029411765,SSW,0.0,SE ,93.0,30.01,0,0.0
05/06/24,10:00,67.4,0.0,ESE,0.0,SE ,93.0,30.011,0,0.0
05/06/24,10:01,67.5,0.0,ESE,0.0,SE ,93.0,30.01,0,0.0
05/06/24,10:02,67.6,0.0,ESE,0.0,SE ,93.0,30.012,0,0.0
05/06/24,10:03,67.7,0.0,ESE,0.0,SE ,93.0,30.011,0,0.0
05/06/24,10:04,67.7,0.05882353,ESE,0.0,SSE,93.0,30.01,0,0.0
05/06/24,10:05,67.9,0.05882353,SE ,0.0,SSE,93.0,30.01,0,0.0
05/06/24,10:06,68.1,0.028571429,SE ,1.0,SSE,93.0,30.011,0,0.0
05/06/24,10:07,68.1,0.20588236,SE ,1.0,SSW,93.0,30.01,0,0.0
05/06/24,10:08,68.3,0.1764706,SE ,0.0, S ,93.0,30.009,0,0.0
05/06/24,10:09,68.3,0.0,SE ,0.0, S ,92.0,30.009,0,0.0
05/06/24,10:10,68.4,0.0,SSE,0.0, S ,91.0,30.008,0,0.0
05/06/24,10:11,68.5,0.0,SSE,0.0, S ,91.0,30.008,0,0.0
05/06/24,10:12,68.6,0.0,SSE,0.0,SSW,92.0,30.009,0,0.0
05/06/24,10:13,68.6,0.0,SSE,0.0,SSW,91.0,30.007,0,0.0
05/06/24,10:14,68.6,0.61764705,SSE,2.0, S ,90.0,30.006,0,0.0
05/06/24,10:15,68.6,0.88235295, S ,1.0, S ,90.0,30.007,0,0.0
05/06/24,10:16,68.6,0.6, S ,1.0,SW ,90.0,30.007,0,0.0
05/06/24,10:17,68.6,0.5294118, S ,0.0,SW ,90.0,30.006,0,0.0
05/06/24,10:18,68.5,0.85294116, S ,1.0,SE ,90.0,30.006,0,0.0
05/06/24,10:19,68.6,0.61764705, S ,0.0,SSW,90.0,30.007,0,0.0
05/06/24,10:20,68.6,0.4117647, S ,1.0,SSE,90.0,30.007,0,0.0
05/06/24,10:21,68.5,1.4705882, S ,2.0, S ,89.0,30.006,0,0.0
05/06/24,10:22,68.5,1.2647059, S ,0.0,SE ,89.0,30.006,0,0.0
05/06/24,10:23,68.6,0.20588236, S ,0.0,SSE,90.0,30.005,0,0.0
05/06/24,10:24,68.6,0.0, S ,0.0,SSE,90.0,30.006,0,0.0
05/06/24,10:25,68.6,0.0882353,SSE,0.0,SSE,90.0,30.006,0,0.0
05/06/24,10:26,68.6,0.20588236,SSE,0.0,SSW,89.0,30.006,0,0.0
05/06/24,10:27,68.6,0.14705883,SSE,1.0,SSW,90.0,30.006,0,0.0
05/06/24,10:28,68.6,0.2,SSE,0.0,SSW,89.0,30.006,0,0.0
05/06/24,10:29,68.6,0.1764706,SSE,0.0,SSW,89.0,30.006,0,0.0
05/06/24,10:30,68.6,0.44117647, S ,0.0, S ,89.0,30.005,0,0.0
05/06/24,10:31,68.6,0.5, S ,0.0,SSE,89.0,30.006,0,0.0
05/06/24,10:32,68.7,0.64705884, S ,1.0,SW ,90.0,30.006,0,0.0
05/06/24,10:33,68.6,1.1142857, S ,0.0,SSW,89.0,30.008,0,0.0
05/06/24,10:34,68.7,0.62857145, S ,1.0,SW ,89.0,30.007,0,0.0
05/06/24,10:35,68.7,0.11764706, S ,0.0, S ,89.0,30.008,0,0.0
05/06/24,10:36,68.7,0.11764706, S ,1.0,SSE,90.0,30.008,0,0.0
05/06/24,10:37,68.8,0.9117647, S ,2.0, S ,89.0,30.008,0,0.0
05/06/24,10:38,68.8,1.1764706, S ,0.0,SE ,89.0,30.009,0,0.0
05/06/24,10:39,68.8,0.61764705, S ,2.0,SW ,89.0,30.009,0,0.0
05/06/24,10:40,68.8,1.4, S ,3.0, S ,88.0,30.009,0,0.0
05/06/24,10:41,68.8,1.7428571, S ,0.0,SSE,88.0,30.007,0,0.0
05/06/24,10:42,68.7,0.9714286, S ,0.0,SE ,88.0,30.006,0,0.0
05/06/24,10:43,68.8,0.2857143, S ,0.0,SE ,88.0,30.006,0,0.0
05/06/24,10:44,68.8,0.20588236, S ,2.0,SSW,89.0,30.005,0,0.0
05/06/24,10:45,68.8,0.61764705,SSE,0.0, S ,88.0,30.005,0,0.0
05/06/24,10:46,68.8,0.44117647,SSE,0.0,ESE,88.0,30.004,0,0.0
05/06/24,10:47,68.8,0.029411765,SSE,0.0,ESE,88.0,30.004,0,0.0
05/06/24,10:48,68.9,0.0,SSE,0.0,ESE,88.0,30.006,0,0.0
05/06/24,10:49,68.9,0.0882353,SSE,0.0,ESE,88.0,30.005,0,0.0
05/06/24,10:50,68.9,0.5,ESE,1.0, N ,88.0,30.006,0,0.0
05/06/24,10:51,69.0,0.44117647,ESE,0.0, N ,89.0,30.007,0,0.0
05/06/24,10:52,69.1,0.057142857,ESE,0.0, N ,89.0,30.005,0,0.0
05/06/24,10:53,69.1,0.05882353,ESE,0.0, N ,89.0,30.005,0,0.0
05/06/24,10:54,69.1,0.029411765,ESE,0.0,NNE,89.0,30.006,0,0.0
05/06/24,10:55,69.1,0.0, N ,0.0,NNE,88.0,30.006,0,0.0
05/06/24,10:56,69.2,0.0, N ,0.0,NNE,88.0,30.004,0,0.0
05/06/24,10:57,69.2,0.0, N ,0.0,NNE,89.0,30.003,0,0.0
05/06/24,10:58,69.3,0.0, N ,0.0, E ,89.0,30.005,0,0.0
05/06/24,10:59,69.3,0.23529412, N ,1.0, S ,89.0,30.004,0,0.0
05/06/24,11:00,69.3,0.2647059,NNE,0.0, S ,88.0,30.003,0,0.0
05/06/24,11:01,69.4,0.029411765,NNE,0.0,SSE,88.0,30.003,0,0.0
05/06/24,11:02,69.4,0.2647059,NNE,0.0,SSW,88.0,30.003,0,0.0
05/06/24,11:03,69.4,0.5588235,NNE,0.0,SSW,88.0,30.002,0,0.0
05/06/24,11:04,69.4,0.6764706,NNE,1.0,SSE,87.0,30.002,0,0.0
05/06/24,11:05,69.4,0.47058824,SSE,0.0,SSE,87.0,30.004,0,0.0
05/06/24,11:06,69.5,0.08571429,SSE,0.0,SSE,87.0,30.003,0,0.0
05/06/24,11:07,69.5,0.0,SSE,0.0,SSE,87.0,30.003,0,0.0
05/06/24,11:08,69.5,0.0,SSE,0.0,SSE,87.0,30.004,0,0.0
05/06/24,11:09,69.5,0.1764706,SSE,0.0,SE ,87.0,30.004,0,0.0
05/06/24,11:10,69.6,0.29411766,SE ,0.0,SE ,87.0,30.003,0,0.0
05/06/24,11:11,69.6,0.11764706,SE ,0.0,SE ,87.0,30.003,0,0.0
05/06/24,11:12,69.6,0.0,SE ,0.0,SE ,87.0,30.002,0,0.0
05/06/24,11:13,69.6,0.20588236,SE ,0.0,WSW,87.0,30.001,0,0.0
05/06/24,11:14,69.6,0.20588236,SE ,0.0,WSW,87.0,30.0,0,0.0
05/06/24,11:15,69.7,0.0,SE ,0.0,SE ,87.0,30.0,0,0.0
05/06/24,11:16,69.7,0.029411765,SE ,0.0,SE ,87.0,30.0,0,0.0
05/06/24,11:17,69.8,0.029411765,SE ,0.0,SE ,87.0,30.0,0,0.0
05/06/24,11:18,69.8,0.057142857,SE ,0.0,SE ,87.0,30.0,0,0.0
05/06/24,11:19,69.9,0.057142857,SE ,0.0,SE ,88.0,30.001,0,0.0
05/06/24,11:20,70.0,0.2647059,SE ,1.0,SSE,88.0,30.001,0,0.0
05/06/24,11:21,70.0,0.29411766,SE ,0.0,SSE,88.0,30.003,0,0.0
05/06/24,11:22,70.1,0.029411765,SE ,0.0,SSE,87.0,30.003,0,0.0
05/06/24,11:23,70.1,0.0,SE ,0.0,SSE,87.0,30.004,0,0.0
05/06/24,11:24,70.1,0.0,SE ,0.0,SSE,87.0,30.005,0,0.0
05/06/24,11:25,70.1,0.0,SE ,0.0,SSE,86.0,30.005,0,0.0
05/06/24,11:26,70.1,0.32352942,SE ,1.0,SE ,87.0,30.007,0,0.0
05/06/24,11:27,70.1,0.44117647,SE ,2.0, S ,86.0,30.007,0,0.0
05/06/24,11:28,70.1,0.5714286,SE ,0.0,SSW,86.0,30.006,0,0.0
05/06/24,11:29,70.0,0.94285715,SE ,1.0,SW ,86.0,30.007,0,0.0
05/06/24,11:30,70.0,0.61764705, S ,0.0,SSW,86.0,30.008,0,0.0
05/06/24,11:31,70.0,0.20588236, S ,0.0,SSW,87.0,30.005,0,0.0
05/06/24,11:32,70.0,0.0, S ,0.0,SSW,87.0,30.005,0,0.0
05/06/24,11:33,70.0,0.0, S ,0.0, S ,87.0,30.004,0,0.0
05/06/24,11:34,70.0,0.0, S ,0.0, S ,87.0,30.004,0,0.0
05/06/24,11:35,70.0,0.0, S ,0.0, S ,87.0,30.003,0,0.0
05/06/24,11:36,70.1,0.11764706, S ,0.0,SSW,87.0,30.002,0,0.0
05/06/24,11:37,70.1,0.29411766, S ,0.0, S ,87.0,30.004,0,0.0
05/06/24,11:38,70.1,0.29411766, S ,0.0,SE ,87.0,30.005,0,0.0
05/06/24,11:39,70.1,0.114285715, S ,0.0,SSE,87.0,30.006,0,0.0
05/06/24,11:40,70.1,0.25714287,SSE,1.0,SSE,87.0,30.007,0,0.0
05/06/24,11:41,70.1,0.3529412,SSE,0.0,SSE,87.0,30.006,0,0.0
05/06/24,11:42,70.1,0.0882353,SSE,0.0,SSE,86.0,30.006,0,0.0
05/06/24,11:43,70.2,0.0,SSE,0.0,SSE,87.0,30.006,0,0.0
05/06/24,11:44,70.2,0.20588236,SSE,0.0,SSE,86.0,30.006,0,0.0
05/06/24,11:45,70.1,0.20588236,SE ,0.0,SSE,86.0,30.005,0,0.0
05/06/24,11:46,70.1,0.0,SE ,0.0,SSE,86.0,30.005,0,0.0
05/06/24,11:47,70.2,0.028571429,SE ,1.0,SSW,87.0,30.004,0,0.0
05/06/24,11:48,70.2,0.4857143,SE ,0.0,SSE,86.0,30.004,0,0.0
05/06/24,11:49,70.2,0.47058824,SE ,0.0,SSE,86.0,30.003,0,0.0
05/06/24,11:50,70.2,0.0,SSE,0.0,SSE,86.0,30.004,0,0.0
05/06/24,11:51,70.2,0.29411766,SSE,0.0,SSE,86.0,30.004,0,0.0
05/06/24,11:52,70.1,0.29411766,SSE,0.0,SSE,85.0,30.002,0,0.0
05/06/24,11:53,70.1,0.0,SSE,0.0,SSE,86.0,30.002,0,0.0
05/06/24,11:54,70.2,0.0,SSE,0.0,SSE,86.0,30.002,0,0.0
05/06/24,11:55,70.2,0.0,SE ,0.0,SSE,86.0,30.001,0,0.0
05/06/24,11:56,70.3,0.0,SE ,0.0,SSE,86.0,30.0,0,0.0
05/06/24,11:57,70.3,0.0,SE ,0.0,SSE,86.0,30.0,0,0.0
05/06/24,11:58,70.3,0.0,SE ,0.0,SSE,86.0,29.999,0,0.0
05/06/24,11:59,70.4,0.0,SE ,0.0,SE ,86.0,29.998,0,0.0
05/06/24,12:00,70.4,0.029411765,SE ,1.0,SW ,85.0,29.998,0,0.0
05/06/24,12:01,70.5,0.1764706,SE ,0.0,SSW,85.0,29.998,0,0.0
05/06/24,12:02,70.5,0.1764706,SE ,0.0,SSW,86.0,29.999,0,0.0
05/06/24,12:03,70.5,0.0,SE ,0.0,SSW,85.0,29.998,0,0.0
05/06/24,12:04,70.6,0.0,SE ,0.0,SSW,85.0,29.998,0,0.0
05/06/24,12:05,70.6,0.0,SE ,0.0,SSE,85.0,29.998,0,0.0
05/06/24,12:06,70.6,0.08571429, S ,0.0,SSE,85.0,29.997,0,0.0
05/06/24,12:07,70.6,0.08571429, S ,0.0,SSE,84.0,29.997,0,0.0
05/06/24,12:08,70.6,0.20588236, S ,2.0,SSW,85.0,29.998,0,0.0
05/06/24,12:09,70.6,0.44117647, S ,1.0, S ,84.0,29.998,0,0.0
05/06/24,12:10,70.6,0.6, S ,0.0,SSE,84.0,29.998,0,0.0
05/06/24,12:11,70.5,0.45714286,SSE,0.0,SSE,84.0,29.999,0,0.0
05/06/24,12:12,70.6,0.057142857,SSE,0.0,SSE,85.0,29.999,0,0.0
05/06/24,12:13,70.6,0.0,SSE,0.0,SSE,85.0,29.999,0,0.0
05/06/24,12:14,70.6,0.0,SSE,0.0,SSE,85.0,29.999,0,0.0
05/06/24,12:15,70.6,0.0,SSE,0.0,SSE,85.0,29.999,0,0.0
05/06/24,12:16,70.7,0.0,SE ,0.0,SSE,85.0,29.999,0,0.0
05/06/24,12:17,70.7,0.0,SE ,0.0,SSE,86.0,29.999,0,0.0
05/06/24,12:18,70.8,0.14705883,SE ,0.0,SE ,85.0,29.999,0,0.0
05/06/24,12:19,70.8,0.3529412,SE ,1.0,SE ,85.0,29.999,0,0.0
05/06/24,12:20,70.9,0.45714286,SE ,0.0,SE ,84.0,30.0,0,0.0
05/06/24,12:21,70.9,0.2857143,SE ,0.0,SE ,85.0,29.999,0,0.0
05/06/24,12:22,71.0,0.0,SE ,0.0,SE ,86.0,29.999,0,0.0
05/06/24,12:23,70.9,0.1764706,SE ,0.0,SSW,84.0,30.001,0,0.0
05/06/24,12:24,70.9,0.1764706,SE ,0.0,SSW,84.0,30.0,0,0.0
05/06/24,12:25,70.9,0.0,SE ,0.0,SSW,84.0,29.999,0,0.0
05/06/24,12:26,70.9,0.029411765,SSE,1.0,SSW,84.0,30.0,0,0.0
05/06/24,12:27,70.9,0.32352942,SSE,0.0,SW ,84.0,29.998,0,0.0
05/06/24,12:28,70.9,0.2857143,SSE,0.0,SSW,84.0,29.998,0,0.0
05/06/24,12:29,70.9,0.0,SSE,0.0,SSW,84.0,29.997,0,0.0
05/06/24,12:30,70.9,0.0,SSE,0.0,ESE,85.0,29.996,0,0.0
05/06/24,12:31,70.9,0.0, S ,0.0,ESE,85.0,29.996,0,0.0
05/06/24,12:32,70.9,0.028571429, S ,0.0,ESE,85.0,29.995,0,0.0
05/06/24,12:33,70.8,0.029411765, S ,0.0,ESE,84.0,29.996,0,0.0
05/06/24,12:34,70.8,0.0, S ,0.0,ESE,85.0,29.995,0,0.0
05/06/24,12:35,70.7,0.0, S ,0.0,ESE,85.0,29.994,0,0.0
05/06/24,12:36,70.7,0.0, E ,0.0,ESE,85.0,29.993,0,0.0
05/06/24,12:37,70.6,0.0, E ,0.0,ESE,85.0,29.993,0,0.0
05/06/24,12:38,70.6,0.0, E ,0.0,ESE,85.0,29.993,0,0.0
05/06/24,12:39,70.6,0.0, E ,0.0,ESE,85.0,29.993,0,0.0
05/06/24,12:40,70.6,0.0, E ,0.0,ESE,85.0,29.993,0,0.0
05/06/24,12:41,70.6,0.0, E ,0.0,ESE,85.0,29.993,0,0.0
05/06/24,12:42,70.5,0.0, E ,0.0,ESE,85.0,29.993,0,0.0
05/06/24,12:43,70.6,0.029411765, E ,0.0,ESE,85.0,29.993,0,0.0
05/06/24,12:44,70.6,0.029411765, E ,0.0,ESE,85.0,29.994,0,0.0
05/06/24,12:45,70.6,0.0, E ,0.0,ESE,85.0,29.994,0,0.0
05/06/24,12:46,70.6,0.0, E ,0.0,ESE,85.0,29.994,0,0.0
05/06/24,12:47,70.6,0.0, E ,0.0,ESE,85.0,29.996,0,0.0
05/06/24,12:48,70.6,0.0, E ,0.0,ESE,85.0,29.994,0,0.0
05/06/24,12:49,70.7,0.0, E ,0.0,ESE,86.0,29.994,0,0.0
05/06/24,12:50,70.7,0.028571429, E ,1.0,SSW,85.0,29.995,0,0.0
05/06/24,12:51,70.6,0.114285715,ESE,0.0,SSW,85.0,29.996,0,0.0
05/06/24,12:52,70.6,0.08571429,ESE,0.0, S ,85.0,29.996,0,0.0
05/06/24,12:53,70.6,0.0,ESE,0.0, S ,85.0,29.995,0,0.0
05/06/24,12:54,70.6,0.0,ESE,0.0, S ,85.0,29.995,0,0.0
05/06/24,12:55,70.6,0.0,ESE,0.0, S ,85.0,29.995,0,0.0
05/06/24,12:56,70.7,0.23529412, S ,0.0,SE ,85.0,29.995,0,0.0
05/06/24,12:57,70.6,0.23529412, S ,0.0,SE ,85.0,29.996,0,0.0
05/06/24,12:58,70.7,0.0, S ,0.0,SE ,85.0,29.995,0,0.0
05/06/24,12:59,70.6,0.029411765, S ,0.0,SE ,85.0,29.995,0,0.0
05/06/24,13:00,70.6,0.029411765, S ,0.0,SE ,85.0,29.995,0,0.0
05/06/24,13:01,70.6,0.0,SE ,0.0,SE ,85.0,29.992,0,0.0
05/06/24,13:02,70.7,0.0,SE ,0.0,SE ,85.0,29.991,0,0.0
05/06/24,13:03,70.7,0.0,SE ,0.0,SE ,85.0,29.991,0,0.0
05/06/24,13:04,70.7,0.0,SE ,0.0,SE ,85.0,29.989,0,0.0
05/06/24,13:05,70.8,0.0,SE ,0.0,SE ,85.0,29.989,0,0.0
05/06/24,13:06,70.8,0.0,SE ,0.0,SE ,85.0,29.99,0,0.0
05/06/24,13:07,70.8,0.0,SE ,0.0,SE ,85.0,29.99,0,0.0
05/06/24,13:08,70.9,0.0,SE ,0.0,SE ,85.0,29.99,0,0.0
05/06/24,13:09,70.9,0.0,SE ,0.0,SE ,85.0,29.991,0,0.0
05/06/24,13:10,70.9,0.0,SE ,0.0,SE ,86.0,29.991,0,0.0
05/06/24,13:11,71.0,0.0,SE ,0.0,SE ,86.0,29.991,0,0.0
05/06/24,13:12,70.9,0.114285715,SE ,0.0,SE ,85.0,29.99,0,0.0
05/06/24,13:13,71.0,0.11764706,SE ,0.0,SE ,85.0,29.991,0,0.0
05/06/24,13:14,71.0,0.0,SE ,0.0,SE ,86.0,29.989,0,0.0
05/06/24,13:15,71.1,0.0,SE ,0.0,SE ,86.0,29.99,0,0.0
05/06/24,13:16,71.1,0.0,SE ,0.0,SE ,86.0,29.989,0,0.0
05/06/24,13:17,71.1,0.0,SE ,0.0,SE ,86.0,29.988,0,0.0
05/06/24,13:18,71.0,0.0,SE ,0.0,SE ,86.0,29.987,0,0.0
05/06/24,13:19,71.0,0.029411765,SE ,0.0,SE ,85.0,29.987,0,0.0
05/06/24,13:20,70.9,0.029411765,SE ,0.0,SE ,85.0,29.987,0,0.0
05/06/24,13:21,70.9,0.029411765,SE ,0.0,SE ,86.0,29.986,0,0.0
05/06/24,13:22,70.8,0.029411765,SE ,0.0,SE ,86.0,29.986,0,0.0
05/06/24,13:23,70.7,0.0,SE ,0.0,SE ,86.0,29.985,0,0.0
05/06/24,13:24,70.7,0.0,SE ,0.0,SE ,86.0,29.984,0,0.0
05/06/24,13:25,70.6,0.0,SE ,0.0,SE ,86.0,29.984,0,0.0
05/06/24,13:26,70.6,0.0,SE ,0.0,SE ,86.0,29.984,0,0.0
05/06/24,13:27,70.5,0.0,SE ,0.0,SE ,86.0,29.983,0,0.0
05/06/24,13:28,70.5,0.0,SE ,0.0,SE ,87.0,29.984,0,0.0
05/06/24,13:29,70.5,0.0,SE ,0.0,SE ,86.0,29.983,0,0.0
05/06/24,13:30,70.5,0.0,SE ,0.0,SE ,86.0,29.983,0,0.0
05/06/24,13:31,70.5,0.0,SE ,0.0,SE ,86.0,29.983,0,0.0
05/06/24,13:32,70.5,0.0,SE ,0.0,SE ,86.0,29.984,0,0.0
05/06/24,13:33,70.6,0.0,SE ,0.0,SE ,87.0,29.982,0,0.0
05/06/24,13:34,70.6,0.0,SE ,0.0,SE ,87.0,29.981,0,0.0
05/06/24,13:35,70.6,0.0,SE ,0.0,SE ,87.0,29.981,0,0.0
05/06/24,13:36,70.6,0.0,SE ,0.0,SE ,86.0,29.981,0,0.0
05/06/24,13:37,70.6,0.0,SE ,0.0,SE ,86.0,29.982,0,0.0
05/06/24,13:38,70.6,0.0,SE ,0.0,SE ,85.0,29.984,0,0.0
05/06/24,13:39,70.7,0.0,SE ,0.0,SE ,86.0,29.984,0,0.0
05/06/24,13:40,70.7,0.0,SE ,0.0,SE ,86.0,29.985,0,0.0
05/06/24,13:41,70.7,0.0,SE ,0.0,SE ,87.0,29.985,0,0.0
05/06/24,13:42,70.7,0.0,SE ,0.0,SE ,86.0,29.985,0,0.0
05/06/24,13:43,70.7,0.0,SE ,0.0,SE ,86.0,29.984,0,0.0
05/06/24,13:44,70.7,0.0,SE ,0.0,SE ,86.0,29.984,0,0.0
05/06/24,13:45,70.7,0.0,SE ,0.0,SE ,86.0,29.984,0,0.0
05/06/24,13:46,70.7,0.0,SE ,0.0,SE ,86.0,29.983,0,0.0
05/06/24,13:47,70.7,0.0,SE ,0.0,SE ,86.0,29.983,0,0.0
05/06/24,13:48,70.7,0.0,SE ,0.0,SE ,86.0,29.983,0,0.0
05/06/24,13:49,70.7,0.0,SE ,0.0,SE ,86.0,29.982,0,0.0
05/06/24,13:50,70.8,0.0,SE ,0.0,SE ,86.0,29.983,0,0.0
05/06/24,13:51,70.7,0.0,SE ,0.0,SE ,85.0,29.982,0,0.0
05/06/24,13:52,70.7,0.0,SE ,0.0,SE ,85.0,29.982,0,0.0
05/06/24,13:53,70.7,0.0,SE ,0.0,SE ,86.0,29.982,0,0.0
05/06/24,13:54,70.8,0.0,SE ,0.0,SE ,86.0,29.982,0,0.0
05/06/24,13:55,70.7,0.0,SE ,0.0,SE ,85.0,29.981,0,0.0
05/06/24,13:56,70.8,0.0,SE ,0.0,SE ,85.0,29.981,0,0.0
05/06/24,13:57,70.8,0.0,SE ,0.0,SE ,87.0,29.981,0,0.0
05/06/24,13:58,70.9,0.0,SE ,0.0,SE ,87.0,29.98,0,0.0
05/06/24,13:59,70.9,0.0,SE ,0.0,SE ,87.0,29.979,0,0.0
05/06/24,14:00,70.9,0.0,SE ,0.0,SE ,87.0,29.98,0,0.0
05/06/24,14:01,71.0,0.0,SE ,0.0,SE ,87.0,29.979,0,0.0
05/06/24,14:02,70.9,0.0,SE ,0.0,SE ,87.0,29.977,0,0.0
05/06/24,14:03,70.9,0.0,SE ,0.0,SE ,86.0,29.977,0,0.0
05/06/24,14:04,71.0,0.0,SE ,0.0,SE ,86.0,29.976,0,0.0
05/06/24,14:05,71.0,0.0,SE ,0.0,SE ,87.0,29.977,0,0.0
05/06/24,14:06,71.0,0.0,SE ,0.0,SE ,87.0,29.976,0,0.0
05/06/24,14:07,71.1,0.0,SE ,0.0,SE ,87.0,29.976,0,0.0
05/06/24,14:08,71.1,0.0,SE ,0.0,SE ,87.0,29.975,0,0.0
05/06/24,14:09,71.1,0.0,SE ,0.0,SE ,86.0,29.974,0,0.0
05/06/24,14:10,71.1,0.0,SE ,0.0,SE ,86.0,29.972,0,0.0
05/06/24,14:11,71.1,0.0,SE ,0.0,SE ,85.0,29.973,0,0.0
05/06/24,14:12,71.1,0.0,SE ,0.0,SE ,86.0,29.972,0,0.0
05/06/24,14:13,71.2,0.029411765,SE ,0.0,SE ,86.0,29.97,0,0.0
05/06/24,14:14,71.2,0.029411765,SE ,0.0,SE ,86.0,29.972,0,0.0
05/06/24,14:15,71.2,0.0,SE ,0.0,SE ,86.0,29.971,0,0.0
05/06/24,14:16,71.2,0.0,SE ,0.0,SE ,87.0,29.971,0,0.0
05/06/24,14:17,71.2,0.0,SE ,0.0,SE ,86.0,29.972,0,0.0
05/06/24,14:18,71.2,0.0,SE ,0.0,SE ,86.0,29.971,0,0.0
05/06/24,14:19,71.2,0.0,SE ,0.0,SE ,87.0,29.974,0,0.0
05/06/24,14:20,71.3,0.0,SE ,0.0,SE ,86.0,29.973,0,0.0
05/06/24,14:21,71.3,0.0,SE ,0.0,SE ,86.0,29.974,0,0.0
05/06/24,14:22,71.3,0.0,SE ,0.0,SE ,86.0,29.975,0,0.0
05/06/24,14:23,71.3,0.0,SE ,0.0,SE ,86.0,29.975,0,0.0
05/06/24,14:24,71.3,0.0,SE ,0.0,SE ,85.0,29.974,0,0.0
05/06/24,14:25,71.3,0.0,SE ,0.0,SE ,85.0,29.975,0,0.0
05/06/24,14:26,71.2,0.0,SE ,0.0,SE ,86.0,29.975,0,0.0
05/06/24,14:27,71.2,0.0,SE ,0.0,SE ,86.0,29.974,0,0.0
05/06/24,14:28,71.3,0.0,SE ,0.0,SE ,86.0,29.974,0,0.0
05/06/24,14:29,71.3,0.0,SE ,0.0,SE ,86.0,29.973,0,0.0
05/06/24,14:30,71.3,0.0,SE ,0.0,SE ,86.0,29.971,0,0.0
05/06/24,14:31,71.4,0.0,SE ,0.0,SE ,86.0,29.971,0,0.0
05/06/24,14:32,71.4,0.0,SE ,0.0,SE ,85.0,29.971,0,0.0
05/06/24,14:33,71.3,0.0,SE ,0.0,SE ,85.0,29.971,0,0.0
05/06/24,14:34,71.3,0.0,SE ,0.0,SE ,85.0,29.969,0,0.0
05/06/24,14:35,71.4,0.0,SE ,0.0,SE ,85.0,29.969,0,0.0
05/06/24,14:36,71.3,0.0,SE ,0.0,SE ,86.0,29.968,0,0.0
05/06/24,14:37,71.4,0.0,SE ,0.0, E ,85.0,29.968,0,0.0
05/06/24,14:38,71.4,0.0,SE ,0.0, E ,86.0,29.967,0,0.0
05/06/24,14:39,71.4,0.0,SE ,0.0, E ,86.0,29.967,0,0.0
05/06/24,14:40,71.4,0.0,SE ,0.0, E ,85.0,29.968,0,0.0
05/06/24,14:41,71.4,0.0, E ,0.0, E ,86.0,29.967,0,0.0
05/06/24,14:42,71.5,0.0, E ,0.0, E ,86.0,29.966,0,0.0
05/06/24,14:43,71.5,0.0, E ,0.0, E ,85.0,29.965,0,0.0
05/06/24,14:44,71.5,0.0, E ,0.0, E ,85.0,29.965,0,0.0
05/06/24,14:45,71.6,0.0, E ,0.0, E ,84.0,29.964,0,0.0
05/06/24,14:46,71.6,0.0, E ,0.0, E ,84.0,29.963,0,0.0
05/06/24,14:47,71.7,0.0, E ,0.0, E ,84.0,29.963,0,0.0
05/06/24,14:48,71.8,0.0, E ,0.0, E ,85.0,29.963,0,0.0
05/06/24,14:49,71.9,0.0, E ,0.0, E ,86.0,29.964,0,0.0
05/06/24,14:50,72.0,0.0, E ,0.0, E ,85.0,29.964,0,0.0
05/06/24,14:51,72.1,0.0, E ,0.0, E ,85.0,29.964,0,0.0
05/06/24,14:52,72.1,0.11764706, E ,0.0,NNE,84.0,29.965,0,0.0
05/06/24,14:53,72.2,0.32352942, E ,0.0, S ,84.0,29.964,0,0.0
05/06/24,14:54,72.2,0.20588236, E ,0.0, S ,84.0,29.964,0,0.0
05/06/24,14:55,72.2,0.028571429, E ,0.0, S ,83.0,29.964,0,0.0
05/06/24,14:56,72.2,0.028571429, E ,0.0, S ,83.0,29.963,0,0.0
05/06/24,14:57,72.2,0.0, S ,0.0, S ,83.0,29.962,0,0.0
05/06/24,14:58,72.3,0.0, S ,0.0, S ,83.0,29.962,0,0.0
05/06/24,14:59,72.3,0.0, S ,0.0, S ,84.0,29.962,0,0.0
05/06/24,15:00,72.4,0.0, S ,0.0, S ,84.0,29.961,0,0.0
05/06/24,15:01,72.4,0.0, S ,0.0, S ,82.0,29.96,0,0.0
05/06/24,15:02,72.4,0.0, S ,0.0, S ,83.0,29.96,0,0.0
05/06/24,15:03,72.3,0.0, S ,0.0, S ,83.0,29.96,0,0.0
05/06/24,15:04,72.4,0.0, S ,0.0, S ,83.0,29.957,0,0.0
05/06/24,15:05,72.4,0.0, S ,0.0, S ,84.0,29.956,0,0.0
05/06/24,15:06,72.5,0.0, S ,0.0, S ,84.0,29.955,0,0.0
05/06/24,15:07,72.6,0.0, S ,0.0, S ,84.0,29.953,0,0.0
05/06/24,15:08,72.7,0.0, S ,0.0, S ,84.0,29.953,0,0.0
05/06/24,15:09,72.8,0.0, S ,0.0, S ,85.0,29.951,0,0.0
05/06/24,15:10,72.9,0.0, S ,0.0, S ,83.0,29.951,0,0.0
05/06/24,15:11,73.0,0.0, S ,0.0, S ,82.0,29.952,0,0.0
05/06/24,15:12,73.1,0.0, S ,0.0, S ,84.0,29.952,0,0.0
05/06/24,15:13,73.2,0.0, S ,0.0, S ,84.0,29.952,0,0.0
05/06/24,15:14,73.3,0.0, S ,0.0, S ,82.0,29.951,0,0.0
05/06/24,15:15,73.4,0.0, S ,0.0, S ,82.0,29.95,0,0.0
05/06/24,15:16,73.5,0.0, S ,0.0, S ,82.0,29.95,0,0.0
05/06/24,15:17,73.6,0.0, S ,0.0, S ,82.0,29.947,0,0.0
05/06/24,15:18,73.6,0.0, S ,0.0, S ,82.0,29.945,0,0.0
05/06/24,15:19,73.7,0.0, S ,0.0, S ,82.0,29.944,0,0.0
05/06/24,15:20,73.7,0.0, S ,0.0, S ,82.0,29.944,0,0.0
05/06/24,15:21,73.6,0.14705883, S ,0.0, S ,81.0,29.942,0,0.0
05/06/24,15:22,73.6,0.20588236, S ,0.0, S ,81.0,29.943,0,0.0
05/06/24,15:23,73.6,0.05882353, S ,0.0, S ,82.0,29.941,0,0.0
05/06/24,15:24,73.5,0.0, S ,0.0, S ,83.0,29.941,0,0.0
05/06/24,15:25,73.4,0.0, S ,0.0, S ,82.0,29.942,0,0.0
05/06/24,15:26,73.4,0.0, S ,0.0, S ,83.0,29.94,0,0.0
05/06/24,15:27,73.3,0.0, S ,0.0, S ,83.0,29.94,0,0.0
05/06/24,15:28,73.3,0.32352942, S ,1.0,SSW,83.0,29.941,0,0.0
05/06/24,15:29,73.1,0.9714286, S ,0.0,NNW,82.0,29.941,0,0.0
05/06/24,15:30,73.0,1.1142857, S ,1.0,NNW,82.0,29.94,0,0.0
05/06/24,15:31,72.9,0.7058824, S ,0.0,NNW,81.0,29.94,0,0.0
05/06/24,15:32,72.8,0.2647059,NW ,0.0,NNW,82.0,29.94,0,0.0
05/06/24,15:33,72.7,0.32352942,NW ,1.0,NNW,82.0,29.94,0,0.0
05/06/24,15:34,72.6,0.32352942,NW ,0.0,NNW,82.0,29.938,0,0.0
05/06/24,15:35,72.5,0.0,NW ,0.0,NNW,82.0,29.939,0,0.0
05/06/24,15:36,72.4,0.0,NW ,0.0,NNW,82.0,29.939,0,0.0
05/06/24,15:37,72.4,0.0,NW ,0.0,NNW,82.0,29.938,0,0.0
05/06/24,15:38,72.4,0.0,NW ,0.0,NNW,82.0,29.938,0,0.0
05/06/24,15:39,72.4,0.0,NW ,0.0,NNW,83.0,29.937,0,0.0
05/06/24,15:40,72.4,0.0,NW ,0.0,NNW,83.0,29.937,0,0.0
05/06/24,15:41,72.4,0.0,NW ,0.0,NNW,83.0,29.936,0,0.0
05/06/24,15:42,72.5,0.0,NW ,0.0,NNW,83.0,29.936,0,0.0
05/06/24,15:43,72.5,0.0,NW ,0.0,NNW,83.0,29.935,0,0.0
05/06/24,15:44,72.6,0.0,NW ,0.0,NNW,83.0,29.934,0,0.0
05/06/24,15:45,72.6,0.0,NW ,0.0,NNW,84.0,29.935,0,0.0
05/06/24,15:46,72.7,0.0,NW ,0.0,NNW,84.0,29.933,0,0.0
05/06/24,15:47,72.7,0.0,NW ,0.0,NNW,84.0,29.934,0,0.0
05/06/24,15:48,72.8,0.0,NW ,0.0,NNW,84.0,29.932,0,0.0
05/06/24,15:49,72.7,0.0,NW ,0.0,NNW,84.0,29.933,0,0.0
05/06/24,15:50,72.7,0.0,NW ,0.0,NNW,84.0,29.931,0,0.0
05/06/24,15:51,72.6,0.0,NW ,0.0,NNW,84.0,29.931,0,0.0
05/06/24,15:52,72.6,0.17142858,NW ,0.0,SSW,84.0,29.93,0,0.0
05/06/24,15:53,72.6,0.17142858,NW ,0.0,SE ,84.0,29.929,0,0.0
05/06/24,15:54,72.6,0.0,NW ,0.0,SE ,84.0,29.929,0,0.0
05/06/24,15:55,72.6,0.0,NW ,0.0,SE ,84.0,29.929,0,0.0
05/06/24,15:56,72.5,0.0,NW ,0.0,SE ,84.0,29.928,0,0.0
05/06/24,15:57,72.5,0.0,SE ,0.0,SE ,84.0,29.927,0,0.0
05/06/24,15:58,72.5,0.0,SE ,0.0,SE ,84.0,29.927,0,0.0